sat.trackr.live / text

‹ back to catalog

SITRO-AIS 42

NORAD 61756 · 2024-199X

PAYLOAD ACTIVE UNKNOWN

§ Identity

Operator
Country
CIS
Launch date
2024-11-04
Launch site
VOSTO
Launch vehicle
Mass (kg)
RCS (m²)

External: N2YO · Heavens-Above · Gunter

§ Orbital elements

Epoch: 2026-09-22T21:11:33.970848Z

Period
90.33 min
Inclination
97.2620°
Eccentricity
0.0002912
Mean motion
15.94117256 rev/d
Perigee alt
288.8 km
Apogee alt
292.7 km
Semi-major
6,668.9 km
B*
7.9762e-4
RAAN
150.3760°
Arg perigee
133.3632°
Mean anomaly
226.7887°
Rev number
15,320

§ Raw data

SITRO-AIS 421 61756U 24199X   26265.88303207  .00292528  34991-4  79762-3 0  99942 61756  97.2620 150.3760 0002912 133.3632 226.7887 15.94117256153202

JSON: /api/v1/satellites/61756 · /tle

For live sub-satellite position, see the globe view (requires WebGL).

§ Visibility from observer

Set your observer location to see the next 7 days of passes ≥ 10°. The values pass through the URL so the page stays shareable.

No JS? Fill the form by hand. The geolocation button needs JavaScript.

§ Radio — SatNOGS DB

ModeDescriptionDownlinkUplink
GMSK USP Mode U - GMSK2k4 - USP 401.125 MHz

1 transmitter · refreshed weekly from db.satnogs.org